Weather History for PAAK - October, 2013

Change the Weather History Date:

Saturday, October 19, 2013

  Actual Average (PADK) Record (PADK)
Temperature  
Mean Temperature 38 °F -  
Max Temperature 42 °F 46 °F 53 °F (1984)
Min Temperature 35 °F 36 °F 29 °F (1955)
Degree Days  
Heating Degree Days 26    
Moisture  
Dew Point 32 °F    
Average Humidity 72    
Maximum Humidity 87    
Minimum Humidity 61    
Precipitation  
Precipitation 0.00 in - - ()
Sea Level Pressure  
Sea Level Pressure 29.52 in    
Wind  
Wind Speed 18 mph (West)    
Max Wind Speed 28 mph    
Max Gust Speed 40 mph    
Visibility 9 miles    
Events      
Averages and records for this station are not official NWS values.
T = Trace of Precipitation, MM = Missing Value Source: NWS Daily Summary

Daily Weather History Graph

Daily Weather History Graph

Search for Another Location

Airport or City:

Trip Planner

Search our weather history database for the weather conditions in past years. The results will help you decide how hot, cold, wet, or windy it might be!

Date:

Astronomy

Oct. 19, 2013 Rise Set
Actual Time 9:09 AM HDT 7:32 PM HDT
Civil Twilight 8:35 AM HDT 8:07 PM HDT
Nautical Twilight 7:55 AM HDT 8:46 PM HDT
Astronomical Twilight 7:16 AM HDT 9:25 PM HDT
Moon 7:58 PM HDT (10/19) 10:10 AM HDT (10/19)
Length of Visible Light 11h 31m
Length of Day
10h 22m
Full, 99% of the Moon is Illuminated
Oct 19
Full
Oct 26
Last Quarter
Nov 3
New
Nov 9
First Quarter
Nov 17
Full

Hourly Weather History & Observations

Time (HDT) Temp. Windchill Dew Point Humidity Pressure Visibility Wind Dir Wind Speed Gust Speed Precip Events Conditions
12:16 AM 42.8 °F 33.8 °F 33.8 °F 70% 29.38 in 10.0 mi West 21.9 mph 29.9 mph N/A   Mostly Cloudy
12:36 AM 42.8 °F 34.0 °F 30.2 °F 61% 29.39 in 10.0 mi West 20.7 mph 31.1 mph N/A   Mostly Cloudy
12:56 AM 42.8 °F 34.5 °F 30.2 °F 61% 29.40 in 10.0 mi West 18.4 mph 29.9 mph N/A   Scattered Clouds
1:16 AM 42.8 °F 34.5 °F 33.8 °F 70% 29.41 in 10.0 mi West 18.4 mph 31.1 mph N/A   Overcast
1:36 AM 42.8 °F 36.2 °F 33.8 °F 70% 29.41 in 10.0 mi West 12.7 mph 27.6 mph N/A   Mostly Cloudy
1:56 AM 42.8 °F 34.8 °F 33.8 °F 70% 29.42 in 10.0 mi West 17.3 mph 32.2 mph N/A   Overcast
2:16 AM 42.8 °F 34.5 °F 30.2 °F 61% 29.42 in 10.0 mi West 18.4 mph 28.8 mph N/A   Scattered Clouds
2:36 AM 42.8 °F 33.8 °F 30.2 °F 61% 29.42 in 10.0 mi West 21.9 mph 32.2 mph N/A   Scattered Clouds
2:56 AM 42.8 °F 34.3 °F 30.2 °F 61% 29.43 in 10.0 mi West 19.6 mph 29.9 mph N/A   Mostly Cloudy
3:16 AM 42.8 °F 34.0 °F 30.2 °F 61% 29.43 in 10.0 mi West 20.7 mph 25.3 mph N/A   Scattered Clouds
3:36 AM 42.8 °F 33.8 °F 30.2 °F 61% 29.44 in 10.0 mi West 21.9 mph 28.8 mph N/A   Scattered Clouds
3:56 AM 42.8 °F 34.8 °F 32.0 °F 66% 29.45 in 10.0 mi West 17.3 mph 27.6 mph N/A   Overcast
4:16 AM 42.8 °F 33.8 °F 30.2 °F 61% 29.45 in 10.0 mi West 21.9 mph 27.6 mph N/A   Mostly Cloudy
4:36 AM 42.8 °F 34.8 °F 30.2 °F 61% 29.45 in 10.0 mi West 17.3 mph 27.6 mph N/A   Overcast
4:56 AM 42.8 °F 32.7 °F 30.2 °F 61% 29.46 in 5.0 mi West 27.6 mph 40.3 mph N/A   Overcast
5:16 AM 41.0 °F 31.6 °F 33.8 °F 76% 29.46 in 10.0 mi West 20.7 mph 31.1 mph N/A   Mostly Cloudy
5:36 AM 41.0 °F 32.5 °F 33.8 °F 76% 29.47 in 10.0 mi West 17.3 mph 25.3 mph N/A   Mostly Cloudy
5:56 AM 41.0 °F 33.9 °F 33.8 °F 76% 29.48 in 10.0 mi West 12.7 mph 24.2 mph N/A   Overcast
6:16 AM 41.0 °F 32.8 °F 33.8 °F 76% 29.47 in 10.0 mi West 16.1 mph 26.5 mph N/A   Mostly Cloudy
6:36 AM 41.0 °F 31.1 °F 32.0 °F 70% 29.49 in 10.0 mi West 23.0 mph 29.9 mph N/A   Mostly Cloudy
6:56 AM 39.2 °F 30.5 °F 32.0 °F 75% 29.50 in 10.0 mi West 16.1 mph 19.6 mph N/A   Mostly Cloudy
7:16 AM 39.2 °F 31.2 °F 32.0 °F 75% 29.50 in 4.0 mi West 13.8 mph 33.4 mph N/A   Mostly Cloudy
7:36 AM 39.2 °F 31.2 °F 32.0 °F 75% 29.51 in 10.0 mi WNW 13.8 mph 27.6 mph N/A   Overcast
7:56 AM 39.2 °F 30.8 °F 33.8 °F 81% 29.50 in 10.0 mi West 15.0 mph 20.7 mph N/A   Overcast
8:16 AM 39.2 °F 30.2 °F 30.2 °F 70% 29.51 in 10.0 mi West 17.3 mph 26.5 mph N/A   Mostly Cloudy
8:36 AM 39.2 °F 31.2 °F 30.2 °F 70% 29.51 in 10.0 mi WSW 13.8 mph 19.6 mph N/A   Overcast
8:56 AM 39.2 °F 30.5 °F 30.2 °F 70% 29.51 in 10.0 mi West 16.1 mph - N/A   Scattered Clouds
9:16 AM 39.2 °F 28.7 °F 32.0 °F 75% 29.52 in 10.0 mi West 23.0 mph 27.6 mph N/A   Scattered Clouds
9:36 AM 39.2 °F 29.6 °F 30.2 °F 70% 29.52 in 10.0 mi West 19.6 mph 23.0 mph N/A   Partly Cloudy
9:56 AM 41.0 °F 33.5 °F 32.0 °F 70% 29.52 in 10.0 mi West 13.8 mph - N/A   Mostly Cloudy
10:16 AM 42.8 °F 34.5 °F 30.2 °F 61% 29.53 in 10.0 mi West 18.4 mph 23.0 mph N/A   Mostly Cloudy
10:36 AM 41.0 °F 33.5 °F 30.2 °F 65% 29.54 in 10.0 mi West 13.8 mph 20.7 mph N/A   Mostly Cloudy
10:56 AM 41.0 °F 33.5 °F 28.4 °F 61% 29.54 in 10.0 mi West 13.8 mph 25.3 mph N/A   Mostly Cloudy
11:16 AM 42.8 °F 34.5 °F 30.2 °F 61% 29.54 in 10.0 mi West 18.4 mph 24.2 mph N/A   Mostly Cloudy
11:36 AM 42.8 °F 34.8 °F 33.8 °F 70% 29.55 in 10.0 mi WNW 17.3 mph 25.3 mph N/A   Overcast
11:56 AM 35.6 °F 26.2 °F 30.2 °F 81% 29.56 in 1.5 mi WSW 15.0 mph 32.2 mph N/A   Overcast
12:16 PM 37.4 °F 29.3 °F 33.8 °F 87% 29.56 in 10.0 mi WSW 12.7 mph - N/A   Mostly Cloudy
12:36 PM 39.2 °F 30.2 °F 33.8 °F 81% 29.56 in 10.0 mi WSW 17.3 mph 23.0 mph N/A   Scattered Clouds
12:56 PM 37.4 °F 27.2 °F 32.0 °F 81% 29.56 in 9.0 mi SW 19.6 mph 26.5 mph N/A   Overcast
1:16 PM 37.4 °F 29.8 °F 33.8 °F 87% 29.56 in 10.0 mi WSW 11.5 mph - N/A   Scattered Clouds
1:36 PM 39.2 °F 32.0 °F 33.8 °F 81% 29.56 in 10.0 mi WSW 11.5 mph - N/A   Clear
1:56 PM 41.0 °F 32.8 °F 33.8 °F 76% 29.56 in 10.0 mi West 16.1 mph 23.0 mph N/A   Scattered Clouds
2:16 PM 42.8 °F 34.3 °F 35.6 °F 76% 29.55 in 10.0 mi West 19.6 mph 26.5 mph N/A   Mostly Cloudy
2:36 PM 41.0 °F 33.1 °F 32.0 °F 70% 29.56 in 10.0 mi West 15.0 mph 24.2 mph N/A   Mostly Cloudy
2:56 PM 42.8 °F 35.1 °F 32.0 °F 66% 29.55 in 10.0 mi West 16.1 mph 24.2 mph N/A   Scattered Clouds
3:16 PM 42.8 °F 34.8 °F 32.0 °F 66% 29.55 in 10.0 mi West 17.3 mph 21.9 mph N/A   Scattered Clouds
3:36 PM 41.0 °F 32.8 °F 30.2 °F 65% 29.55 in 10.0 mi West 16.1 mph 20.7 mph N/A   Scattered Clouds
3:56 PM 42.8 °F 35.4 °F 30.2 °F 61% 29.55 in 10.0 mi West 15.0 mph 20.7 mph N/A   Scattered Clouds
4:16 PM 42.8 °F 34.8 °F 30.2 °F 61% 29.55 in 10.0 mi West 17.3 mph 23.0 mph N/A   Partly Cloudy
4:36 PM 41.0 °F 33.5 °F 30.2 °F 65% 29.55 in 10.0 mi West 13.8 mph 19.6 mph N/A   Clear
4:56 PM 41.0 °F 33.5 °F 32.0 °F 70% 29.56 in 10.0 mi West 13.8 mph 19.6 mph N/A   Mostly Cloudy
5:16 PM 37.4 °F 28.2 °F 32.0 °F 81% 29.56 in 4.0 mi West 16.1 mph 27.6 mph N/A   Overcast
5:36 PM 35.6 °F 26.6 °F 30.2 °F 81% 29.57 in 2.0 mi West 13.8 mph 21.9 mph N/A   Overcast
5:56 PM 37.4 °F 28.5 °F 32.0 °F 81% 29.56 in 10.0 mi West 15.0 mph - N/A   Mostly Cloudy
6:16 PM 37.4 °F 26.9 °F 33.8 °F 87% 29.57 in 10.0 mi West 20.7 mph 31.1 mph N/A   Mostly Cloudy
6:36 PM 37.4 °F 28.9 °F 33.8 °F 87% 29.57 in 10.0 mi West 13.8 mph 20.7 mph N/A   Overcast
6:56 PM 37.4 °F 29.8 °F 33.8 °F 87% 29.57 in 10.0 mi West 11.5 mph - N/A   Mostly Cloudy
7:16 PM 37.4 °F 29.3 °F 32.0 °F 81% 29.57 in 10.0 mi West 12.7 mph - N/A   Partly Cloudy
7:36 PM 37.4 °F 29.3 °F 33.8 °F 87% 29.57 in 10.0 mi WNW 12.7 mph 20.7 mph N/A   Scattered Clouds
7:56 PM 37.4 °F 27.5 °F 32.0 °F 81% 29.58 in 5.0 mi WNW 18.4 mph 29.9 mph N/A   Overcast
8:16 PM 35.6 °F 29.9 °F 32.0 °F 87% 29.59 in 10.0 mi WNW 6.9 mph - N/A   Mostly Cloudy
8:36 PM 37.4 °F 30.8 °F 32.0 °F 81% 29.59 in 10.0 mi West 9.2 mph - N/A   Mostly Cloudy
8:56 PM 37.4 °F 29.8 °F 32.0 °F 81% 29.59 in 10.0 mi WSW 11.5 mph - N/A   Mostly Cloudy
9:16 PM 37.4 °F 28.2 °F 30.2 °F 75% 29.60 in 8.0 mi West 16.1 mph - N/A   Overcast
9:36 PM 37.4 °F 28.2 °F 30.2 °F 75% 29.60 in 10.0 mi WSW 16.1 mph 21.9 mph N/A   Mostly Cloudy
9:56 PM 37.4 °F 28.2 °F 28.4 °F 70% 29.60 in 10.0 mi West 16.1 mph 24.2 mph N/A   Mostly Cloudy
10:16 PM 39.2 °F 29.3 °F 30.2 °F 70% 29.59 in 10.0 mi West 20.7 mph 27.6 mph N/A   Mostly Cloudy
10:36 PM 39.2 °F 28.7 °F 28.4 °F 65% 29.60 in 10.0 mi West 23.0 mph - N/A   Scattered Clouds
10:56 PM 39.2 °F 29.3 °F 28.4 °F 65% 29.60 in 10.0 mi West 20.7 mph 27.6 mph N/A   Scattered Clouds
11:16 PM 39.2 °F 30.2 °F 30.2 °F 70% 29.60 in 10.0 mi West 17.3 mph 20.7 mph N/A   Mostly Cloudy
11:36 PM 37.4 °F 27.8 °F 28.4 °F 70% 29.61 in 10.0 mi WSW 17.3 mph 24.2 mph N/A   Mostly Cloudy
11:56 PM 39.2 °F 31.6 °F 28.4 °F 65% 29.62 in 10.0 mi WSW 12.7 mph - N/A   Mostly Cloudy